EW6933 Venaria Reale IT current weather conditions

sailwx.info

Wind from 225 at 2 knots gusting 3

Air temperature 1.1° C
Dewpoint -6.0° C

Last reported at 2020-Jan-21 06:01 UTC.
Time now 2020-Jan-21 06:34 UTC

Location: N 45°08' E 007°38'.
View on Google Maps.

See reports from other nearby stations

  
Tides and Currents Weather Stations Pressure Air Temp Water Temp Dewpoint Dewpoint Depression Visibility Wind Speed Wind Dir Waves Ship Positions
date/time (UTC)wind fromknots sea level pressurealtimeterstation pressurevisibilityair tempwater tempwave heightnotes
2020-Jan-21 06:01 225 2 gusting 3 1.1
2020-Jan-21 05:51 270 3 gusting 4 1.1
2020-Jan-21 05:41 270 1 gusting 4 1.1
2020-Jan-21 05:30 225 3 gusting 5 1.1
2020-Jan-21 05:20 270 3 gusting 6 1.1
2020-Jan-21 05:10 225 1 gusting 4 1.1
2020-Jan-21 05:00 225 2 gusting 3 1.7
2020-Jan-21 04:50 225 1 gusting 3 1.7
2020-Jan-21 04:40 293 2 gusting 4 1.1
2020-Jan-21 04:30 225 3 gusting 5 1.7
2020-Jan-21 04:20 270 1 gusting 2 1.7
2020-Jan-21 04:10 270 0 gusting 2 1.1
2020-Jan-21 04:00 270 0 gusting 1 1.7
2020-Jan-21 03:49 180 1.7
2020-Jan-21 03:39 270 0 gusting 2 2.2
2020-Jan-21 03:29 270 1 gusting 2 1.7
2020-Jan-21 03:19 270 1 gusting 2 1.7
2020-Jan-21 03:09 180 0 gusting 3 1.7
2020-Jan-21 02:59 225 2 gusting 3 1.7
2020-Jan-21 02:49 225 2 gusting 3 2.2
2020-Jan-21 02:39 270 1 gusting 2 2.2
2020-Jan-21 02:29 270 2.8
2020-Jan-21 02:19 270 1 gusting 2 2.8
2020-Jan-21 02:08 270 1 gusting 3 2.8
2020-Jan-21 01:58 225 1 gusting 2 2.8
2020-Jan-21 01:48 293 0 gusting 3 2.8
2020-Jan-21 01:38 180 1 gusting 2 2.8
2020-Jan-21 01:28 248 1 gusting 3 2.8
2020-Jan-21 01:18 315 1 gusting 3 2.8
2020-Jan-21 01:08 270 1 gusting 3 2.8
2020-Jan-21 00:58 248 1 gusting 3 2.8
2020-Jan-21 00:48 270 2 gusting 4 2.2
2020-Jan-21 00:37 270 3 gusting 3 3.3
2020-Jan-21 00:27 270 1 gusting 3 3.3
2020-Jan-21 00:17 270 1 gusting 2 3.3
2020-Jan-21 00:07 270 1 gusting 1 2.8
2020-Jan-20 23:57 270 0 gusting 1 2.8
2020-Jan-20 23:47 270 0 gusting 1 3.3
2020-Jan-20 23:37 315 3.3
2020-Jan-20 23:27 270 1 gusting 3 2.8
2020-Jan-20 23:17 248 2 gusting 3 2.8
2020-Jan-20 23:07 315 1 gusting 3 2.8
2020-Jan-20 22:56 270 1 gusting 3 2.8
2020-Jan-20 22:46 270 2 gusting 4 2.2
2020-Jan-20 22:36 270 1 gusting 4 2.2
2020-Jan-20 22:26 270 1 gusting 3 2.8
2020-Jan-20 22:16 270 1 gusting 3 2.8
2020-Jan-20 22:06 293 1 gusting 3 2.8
2020-Jan-20 21:56 315 1 gusting 2 2.8
2020-Jan-20 21:46 270 1 gusting 3 2.8
2020-Jan-20 21:36 315 1 gusting 4 2.2
2020-Jan-20 21:25 225 2 gusting 5 2.2
2020-Jan-20 21:15 225 3 gusting 4 2.8
2020-Jan-20 21:05 270 1 gusting 3 2.8
2020-Jan-20 20:55 248 1 gusting 3 2.8
2020-Jan-20 20:45 270 1 gusting 1 3.3
2020-Jan-20 20:35 315 3.3
2020-Jan-20 20:25 270 0 gusting 1 3.3
2020-Jan-20 20:15 135 1 gusting 3 3.3
2020-Jan-20 20:05 270 1 gusting 4 3.3
2020-Jan-20 19:55 270 3 gusting 6 3.3
2020-Jan-20 19:44 270 2 gusting 4 3.3
2020-Jan-20 19:34 270 2 gusting 3 3.3
2020-Jan-20 19:24 270 3 gusting 6 3.3
2020-Jan-20 19:14 270 3 gusting 6 3.3
2020-Jan-20 19:04 270 3 gusting 5 3.9
2020-Jan-20 18:54 270 2 gusting 3 3.9
2020-Jan-20 18:44 270 2 gusting 3 4.4
2020-Jan-20 18:34 270 2 gusting 4 4.4
2020-Jan-20 18:24 270 1 gusting 5 4.4
2020-Jan-20 18:14 225 3 gusting 4 5.0
2020-Jan-20 18:03 225 3 gusting 5 5.0
2020-Jan-20 17:53 270 3 gusting 5 5.6
2020-Jan-20 17:43 248 3 gusting 4 6.1
2020-Jan-20 17:33 225 2 gusting 3 6.7
2020-Jan-20 17:23 270 1 gusting 2 7.2
2020-Jan-20 17:13 7.8
2020-Jan-20 17:03 7.8
2020-Jan-20 16:53 7.8
2020-Jan-20 16:43 7.8
2020-Jan-20 16:33 7.8
2020-Jan-20 16:22 7.8
2020-Jan-20 16:12 270 8.3
2020-Jan-20 16:02 7.8
2020-Jan-20 15:52 315 0 gusting 1 7.8
2020-Jan-20 15:42 315 0 gusting 1 8.3
2020-Jan-20 15:32 8.3
2020-Jan-20 15:22 090 8.9
2020-Jan-20 15:12 315 9.4
2020-Jan-20 15:02 8.3
2020-Jan-20 14:52 090 2 gusting 3 8.9
2020-Jan-20 14:41 090 1 gusting 2 10.0
2020-Jan-20 14:31 180 1 gusting 3 10.6
2020-Jan-20 14:21 045 10.6
2020-Jan-20 14:11 315 0 gusting 3 11.7
2020-Jan-20 14:01 315 2 gusting 4 10.6
2020-Jan-20 13:51 315 10.6
2020-Jan-20 13:41 315 0 gusting 3 11.7
2020-Jan-20 13:31 270 0 gusting 3 10.6
2020-Jan-20 13:21 225 1 gusting 3 10.6
2020-Jan-20 13:10 180 1 gusting 2 9.4
2020-Jan-20 13:00 180 1 gusting 6 10.0
2020-Jan-20 12:50 270 3 gusting 4 10.0
2020-Jan-20 12:40 315 1 gusting 6 9.4
2020-Jan-20 12:30 270 3 gusting 6 8.3
2020-Jan-20 12:20 315 3 gusting 7 8.3
2020-Jan-20 12:10 270 6 gusting 6 8.3
2020-Jan-20 12:00 270 2 gusting 6 7.8
2020-Jan-20 11:50 315 4 gusting 6 6.7
2020-Jan-20 11:40 270 3 gusting 7 6.7
2020-Jan-20 11:29 270 5 gusting 9 6.7
2020-Jan-20 11:19 270 6 gusting 10 6.1
2020-Jan-20 11:09 270 5 gusting 10 6.1
2020-Jan-20 10:59 270 6 gusting 9 6.1
2020-Jan-20 10:49 293 3 gusting 8 6.1
2020-Jan-20 10:39 270 3 gusting 6 5.6
2020-Jan-20 10:29 225 3 gusting 7 5.6
2020-Jan-20 10:19 315 5 gusting 7 5.6
2020-Jan-20 10:09 315 4 gusting 6 5.6
2020-Jan-20 09:59 248 3 gusting 6 5.0
2020-Jan-20 09:48 315 3 gusting 6 5.0
2020-Jan-20 09:38 293 4 gusting 6 5.0
2020-Jan-20 09:28 270 3 gusting 6 5.0
2020-Jan-20 09:18 270 5 gusting 7 4.4
2020-Jan-20 09:08 315 3 gusting 4 5.0
2020-Jan-20 08:58 315 1 gusting 3 5.0
2020-Jan-20 08:48 203 1 gusting 6 5.0
2020-Jan-20 08:38 315 3 gusting 6 4.4
2020-Jan-20 08:28 270 2 gusting 3 4.4
2020-Jan-20 08:17 4.4
2020-Jan-20 08:07 315 3 gusting 9 4.4
2020-Jan-20 07:57 090 1 gusting 6 4.4
2020-Jan-20 07:47 315 4 gusting 6 4.4
2020-Jan-20 07:37 270 2 gusting 6 4.4
2020-Jan-20 07:27 270 3 gusting 3 5.6
2020-Jan-20 07:17 270 1 gusting 1 5.0
2020-Jan-20 07:07 180 3 gusting 5 5.0
2020-Jan-20 06:57 135 1 gusting 3 5.0
2020-Jan-20 06:47 180 4 gusting 5 4.4
2020-Jan-20 06:36 135 2 gusting 6 4.4
2020-Jan-20 06:26 135 3 gusting 6 3.9
2020-Jan-20 06:16 180 1 gusting 3 3.9
2020-Jan-20 06:06 180 1 gusting 3 3.3
2020-Jan-20 05:56 180 1 gusting 2 3.3
2020-Jan-20 05:46 270 1 gusting 3 3.9
2020-Jan-20 05:36 270 1 gusting 3 3.9
2020-Jan-20 05:26 180 1 gusting 3 3.9
2020-Jan-20 05:16 270 2 gusting 3 3.9
2020-Jan-20 05:05 270 1 gusting 2 4.4
2020-Jan-20 04:55 270 1 gusting 3 3.9
2020-Jan-20 04:45 225 1 gusting 3 3.9
2020-Jan-20 04:35 180 1 gusting 3 3.9
2020-Jan-20 04:25 315 1 gusting 3 3.9
2020-Jan-20 04:15 270 1 gusting 4 3.9
2020-Jan-20 04:05 270 2 gusting 3 3.9
2020-Jan-20 03:55 270 1 gusting 3 3.9
2020-Jan-20 03:45 270 1 gusting 3 3.9
2020-Jan-20 03:35 315 1 gusting 3 3.9
2020-Jan-20 03:24 270 1 gusting 3 4.4
2020-Jan-20 03:14 270 1 gusting 3 4.4
2020-Jan-20 03:04 270 1 gusting 2 4.4
2020-Jan-20 02:54 315 4.4
2020-Jan-20 02:44 225 1 gusting 2 3.9
2020-Jan-20 02:34 270 1 gusting 2 3.9
2020-Jan-20 02:24 270 1 gusting 5 3.9
2020-Jan-20 02:14 225 1 gusting 3 3.9
2020-Jan-20 02:04 270 1 gusting 3 3.9
2020-Jan-20 01:54 225 1 gusting 3 3.9
2020-Jan-20 01:43 225 3.9
2020-Jan-20 01:33 270 1 gusting 4 3.3
2020-Jan-20 01:23 225 1 gusting 4 3.3
2020-Jan-20 01:13 225 0 gusting 3 3.3
2020-Jan-20 01:03 315 0 gusting 2 3.3
2020-Jan-20 00:53 180 1 gusting 4 3.3
2020-Jan-20 00:43 293 0 gusting 2 2.8
2020-Jan-20 00:33 090 0 gusting 4 2.8
2020-Jan-20 00:23 180 1 gusting 5 2.8
2020-Jan-20 00:12 270 1 gusting 3 3.9
2020-Jan-20 00:02 270 0 gusting 3 3.3
2020-Jan-19 23:52 3.9
2020-Jan-19 23:42 3.9
2020-Jan-19 23:32 045 0 gusting 2 3.3
2020-Jan-19 23:22 270 0 gusting 3 3.9
2020-Jan-19 23:12 270 1 gusting 3 3.9
2020-Jan-19 23:02 090 0 gusting 3 3.9
2020-Jan-19 22:52 225 1 gusting 4 3.3
2020-Jan-19 22:42 270 0 gusting 2 3.3
2020-Jan-19 22:31 270 1 gusting 3 3.3
2020-Jan-19 22:21 270 0 gusting 3 3.3
2020-Jan-19 22:11 270 1 gusting 3 3.3
2020-Jan-19 22:01 270 1 gusting 3 3.3
2020-Jan-19 21:51 180 3.9
2020-Jan-19 21:41 248 2 gusting 3 3.9
2020-Jan-19 21:31 270 4.4
2020-Jan-19 21:21 270 1 gusting 5 3.9
2020-Jan-19 21:11 293 3 gusting 5 3.9
2020-Jan-19 21:01 270 1 gusting 2 3.9
2020-Jan-19 20:50 315 1 gusting 3 3.9
2020-Jan-19 20:40 338 1 gusting 2 3.9
2020-Jan-19 20:30 315 0 gusting 2 3.3
2020-Jan-19 20:20 315 1 gusting 1 3.3
2020-Jan-19 20:10 045 1 gusting 2 3.9
2020-Jan-19 20:00 270 4.4
2020-Jan-19 19:50 315 1 gusting 4 4.4
2020-Jan-19 19:40 270 3 gusting 4 4.4
2020-Jan-19 19:30 270 2 gusting 4 5.0
2020-Jan-19 19:19 315 2 gusting 4 5.0
2020-Jan-19 19:09 270 2 gusting 3 5.6
2020-Jan-19 18:59 293 1 gusting 3 5.0
2020-Jan-19 18:49 270 3 gusting 5 4.4
2020-Jan-19 18:39 315 1 gusting 3 5.0
2020-Jan-19 18:29 270 1 gusting 3 5.6
2020-Jan-19 18:19 270 0 gusting 2 5.6
2020-Jan-19 18:09 225 1 gusting 3 6.1
2020-Jan-19 17:59 270 1 gusting 5 6.1
2020-Jan-19 17:49 248 2 gusting 6 6.7
2020-Jan-19 17:38 225 1 gusting 4 6.7
2020-Jan-19 17:28 225 1 gusting 4 6.7
2020-Jan-19 17:18 315 2 gusting 3 7.8
2020-Jan-19 17:08 135 0 gusting 1 8.3
2020-Jan-19 16:58 090 8.3
2020-Jan-19 16:48 135 8.3
2020-Jan-19 16:38 135 1 gusting 2 8.3
2020-Jan-19 16:28 090 1 gusting 3 8.3
2020-Jan-19 16:18 090 1 gusting 3 8.3
2020-Jan-19 16:08 090 1 gusting 3 8.3
2020-Jan-19 15:57 090 1 gusting 3 8.3
2020-Jan-19 15:47 090 2 gusting 3 8.3
2020-Jan-19 15:37 090 1 gusting 3 8.3
2020-Jan-19 15:27 090 0 gusting 2 8.9
2020-Jan-19 15:17 090 1 gusting 2 8.9
2020-Jan-19 15:07 090 0 gusting 2 8.9
2020-Jan-19 14:57 090 0 gusting 3 8.9
2020-Jan-19 14:47 045 1 gusting 3 9.4
2020-Jan-19 14:37 180 1 gusting 2 10.6
2020-Jan-19 14:27 10.6
2020-Jan-19 14:16 090 10.0
2020-Jan-19 14:06 090 1 gusting 4 10.0
2020-Jan-19 13:56 315 1 gusting 3 10.0
2020-Jan-19 13:46 9.4
2020-Jan-19 13:36 045 1 gusting 3 9.4
2020-Jan-19 13:26 293 1 gusting 3 10.0
2020-Jan-19 13:16 045 1 gusting 5 10.0
2020-Jan-19 13:06 090 3 gusting 4 10.6
2020-Jan-19 12:56 180 1 gusting 3 10.6
2020-Jan-19 12:45 045 1 gusting 4 10.6
2020-Jan-19 12:35 090 10.0
2020-Jan-19 12:25 315 1 gusting 3 10.6
2020-Jan-19 12:15 045 1 gusting 2 10.6
2020-Jan-19 12:05 090 2 gusting 4 9.4
2020-Jan-19 11:55 045 2 gusting 3 10.6
2020-Jan-19 11:45 045 0 gusting 2 10.0
2020-Jan-19 11:35 090 1 gusting 1 10.6
2020-Jan-19 11:25 315 10.0
2020-Jan-19 11:15 315 9.4
2020-Jan-19 11:04 135 0 gusting 1 9.4
2020-Jan-19 10:54 225 0 gusting 1 8.9
2020-Jan-19 10:44 180 0 gusting 2 7.8
2020-Jan-19 10:34 135 1 gusting 2 7.2
2020-Jan-19 10:24 135 1 gusting 1 6.1
2020-Jan-19 10:14 090 1 gusting 3 5.0
2020-Jan-19 10:04 090 1 gusting 3 5.0
2020-Jan-19 09:54 113 1 gusting 3 5.0
2020-Jan-19 09:44 090 1 gusting 3 5.0
2020-Jan-19 09:34 180 1 gusting 5 3.9
2020-Jan-19 09:23 158 0 gusting 2 3.3
2020-Jan-19 09:13 135 1 gusting 3 3.3
2020-Jan-19 09:03 113 2 gusting 3 2.8
2020-Jan-19 08:53 270 1 gusting 4 2.8
2020-Jan-19 08:43 180 1 gusting 3 2.8
2020-Jan-19 08:33 135 1 gusting 3 2.8
2020-Jan-19 08:23 090 0 gusting 3 2.2
2020-Jan-19 08:13 045 1 gusting 4 1.7
2020-Jan-19 08:03 113 0 gusting 3 1.7
2020-Jan-19 07:52 293 2 gusting 3 1.1
2020-Jan-19 07:42 270 0 gusting 1 1.7
2020-Jan-19 07:32 180 1 gusting 2 1.7
2020-Jan-19 07:22 315 0 gusting 1 1.7
2020-Jan-19 07:12 270 0 gusting 2 1.1
2020-Jan-19 07:02 270 1 gusting 2 1.1
2020-Jan-19 06:52 270 0 gusting 1 1.1
2020-Jan-19 06:42 045 0 gusting 1 1.7
2020-Jan-19 06:32 270 0 gusting 2 1.1
2020-Jan-19 06:22 248 1 gusting 3 0.6
2020-Jan-19 06:11 180 0.6
2020-Jan-19 06:01 270 0.6